COSMOS 1275 DEB

Satellite information

Favourite Embed

Satellite Type and Status

DEBRISIN ORBIT

Key statistics

Satellite COSMOS 1275 DEB at a glance.

Uptime

16264

Days in orbit

Revolutions

≈ 13.8

Per day

Orbit

LEO

Low Earth Orbit

Inclination

83.0

Latest

Satellite identification and parameters

Extended collection of information and parameters for COSMOS 1275 DEB.

Object identification

Identified? True

Debris? True

Object name: COSMOS 1275 DEB

International designator: 1981-053NV

Object number (NORAD): 39959

Object ID (CCSDS): 39959

Country: COMMONWEALTH OF INDEPENDENT STATES (CIS)

Current information (Y/N): Y

RCS size: SMALL

Orbital parameters

Period: 104.691 minutes

Inclination: 82.9629 deg

SMA: 7358.124 km

Apoapsis: 1008.682 km

Periapsis: 951.295 km

RAAN: 49.5719 deg

Eccentricy: 0.00389952

Argument of periapsis: 2.6357 deg

Mean anomaly: 357.4997 deg

Mean motion: 13.75473242 rev/day

Mean motion (dot): 0.00000126 rev/day2

B* drag term: 0.00011475059 1/REarth

Two-line elements (TLE)

Creation date: Nov. 25, 2025, 3:42 a.m.

Reference frame: TEME

Reference center: EARTH

Epoch: Nov. 24, 2025, 11:56 a.m. UTC

TLE line 0: 0 COSMOS 1275 DEB

TLE line 1: 1 39959U 81053NV 25328.49763391 .00000126 00000-0 11475-3 0 9994

TLE line 2: 2 39959 82.9629 49.5719 0038995 2.6357 357.4997 13.75473242575701

Live tracking on map

Real-time ground track for satellite COSMOS 1275 DEB.

In-orbit conjunctions

A list of the most updated potential collisions computed for object COSMOS 1275 DEB.

Target Orbit TCA Probability of collision Miss distance Type
SL-8 R/B LEO 2025-11-11 21:26:53 0.0002402082 247.0 (m) ROCKET BODY

Associated space launch

Navigation satellite providing location information for the Tsiklon-B navigation system

COSMOS 1275 DEB was lifted into orbit during the mission ‘Kosmos-3M | Parus 27’, on board a Kosmos-3M space rocket.

The launch took place on June 4, 1981, 3:41 p.m. from 132/2.

For more information about the launch, click the button.

Launch to space Kosmos-3M | Parus 27
Kosmos-3M | Parus 27

Agency: N/A

Status: Launch Successful

Launch date: June 4, 1981, 3:41 p.m. UTC

Rocket: Kosmos-3M

Launch pad: 132/2

Location: Plesetsk Cosmodrome, Russian Federation

...

Latest news about this satellite

There are no fresh news available about this satellite. Check back as we update our databases every day.


Newsletter sign-up

Weekly statistics, charts and insights to help you stay on top of the space industry.